Date,TemperatureHighF,TemperatureAvgF,TemperatureLowF,DewpointHighF,DewpointAvgF,DewpointLowF,HumidityHigh,HumidityAvg,HumidityLow,PressureMaxIn,PressureMinIn,WindSpeedMaxMPH,WindSpeedAvgMPH,GustSpeedMaxMPH,PrecipitationSumIn
2012-2-29,53.0,42.8,36.0,32.0,28.9,26.0,71,58,41,29.76,29.55,25,14,40,0.69
2012-3-1,49.0,39.7,33.0,35.0,30.5,26.0,81,70,54,29.91,29.67,13,5,24,0.00
2012-3-2,53.0,40.4,33.0,46.0,35.5,29.0,93,83,69,29.75,29.28,17,7,30,0.10
2012-3-3,34.0,31.9,28.0,30.0,24.5,21.0,85,74,64,29.93,29.74,16,9,25,0.01
2012-3-4,37.0,29.1,23.0,28.0,22.6,19.0,93,77,53,30.08,29.89,11,5,18,0.00
2012-3-5,36.0,26.5,17.0,29.0,19.2,-99.9,92,81,65,30.45,30.07,12,-23,19,0.07
2012-3-6,68.0,50.4,33.0,41.0,33.9,26.0,80,55,34,30.26,29.96,24,13,39,0.01
2012-3-7,66.0,59.0,52.0,53.0,44.0,34.0,85,58,48,30.03,29.86,26,15,41,0.05
2012-3-8,60.0,41.2,33.0,54.0,32.7,24.0,93,73,47,30.37,29.84,17,9,26,0.34
2012-3-9,43.0,27.7,29.0,26.0,-10.1,-99.9,76,37,32,30.58,30.37,11,-234,18,0.04
2012-3-10,60.0,42.1,26.0,30.0,23.4,-99.9,75,52,28,30.53,30.27,16,7,26,0.00
2012-3-11,67.0,51.7,33.0,47.0,35.2,25.0,80,55,36,30.29,30.00,14,7,26,0.00
2012-3-12,76.0,61.5,52.0,57.0,52.2,47.0,93,74,37,30.00,29.75,24,11,37,0.12
2012-3-13,77.0,59.8,45.0,53.0,47.0,43.0,96,67,32,30.11,29.94,6,2,12,0.01
2012-3-14,80.0,67.7,55.0,63.0,57.9,45.0,93,72,51,30.05,29.91,17,8,28,0.00
2012-3-15,81.0,64.5,60.0,63.0,47.8,-99.9,93,67,46,30.04,29.93,14,-68,23,0.00
2012-3-16,79.0,65.6,56.0,59.0,55.1,51.0,93,71,46,30.07,29.99,12,5,22,0.00
2012-3-17,78.0,64.0,53.0,65.0,57.1,51.0,96,80,55,30.08,29.94,17,6,30,0.00
2012-3-18,80.0,67.1,55.0,63.0,58.6,52.0,94,76,49,30.07,29.94,15,6,25,0.00
2012-3-19,81.0,70.5,62.0,62.0,59.2,54.0,92,70,44,29.99,29.85,13,7,28,0.00
2012-3-20,82.0,66.6,62.0,58.0,40.0,-99.9,74,48,33,29.98,29.88,18,-71,35,0.00
2012-3-21,83.0,72.0,61.0,58.0,55.0,52.0,82,57,37,30.05,29.96,15,7,28,0.00
2012-3-22,68.0,64.6,62.0,62.0,56.5,-99.9,88,77,62,30.06,29.96,8,-3,17,0.03
2012-3-23,69.0,58.5,48.0,59.0,53.0,45.0,98,83,50,29.96,29.76,16,3,27,0.03
2012-3-24,72.0,57.0,46.0,55.0,49.9,44.0,94,79,47,29.93,29.77,8,2,16,0.01
2012-3-25,75.0,58.3,54.0,58.0,43.4,-99.9,93,69,47,30.06,29.93,8,-60,15,0.00
2012-3-26,57.0,44.0,44.0,52.0,24.4,-99.9,88,61,48,30.28,30.06,10,-93,21,0.00
2012-3-27,74.0,56.8,41.0,54.0,40.6,32.0,72,56,39,30.19,29.87,19,11,29,0.00
2012-3-28,73.0,64.0,55.0,56.0,45.6,34.0,86,55,27,29.99,29.85,15,6,24,0.10
2012-3-29,58.0,49.9,44.0,47.0,40.8,36.0,86,72,48,30.09,29.90,10,4,15,0.11
2012-3-30,73.0,58.7,47.0,59.0,49.7,43.0,90,74,50,29.90,29.70,13,7,22,0.06
2012-3-31,66.0,51.6,40.0,46.0,42.1,37.0,90,72,46,29.96,29.79,7,4,15,0.00
2012-4-1,85.0,66.9,53.0,64.0,55.2,46.0,92,70,38,29.83,29.58,10,6,21,0.13
2012-4-2,77.0,63.9,52.0,60.0,54.7,49.0,91,74,55,29.82,29.66,11,7,20,0.04
2012-4-3,85.0,67.3,53.0,62.0,54.8,47.0,89,68,32,29.85,29.73,14,5,22,0.00
2012-4-4,69.0,55.1,46.0,52.0,41.8,25.0,89,64,27,29.87,29.78,10,6,22,0.01
2012-4-5,58.0,49.3,39.0,37.0,33.3,27.0,71,55,35,30.11,29.83,9,5,22,0.01
2012-4-6,62.0,45.9,33.0,31.0,28.6,25.0,87,56,25,30.28,30.11,7,3,15,0.00
2012-4-7,65.0,53.6,37.0,47.0,33.7,26.0,81,49,29,30.29,30.13,11,5,20,0.00
2012-4-8,65.0,54.0,41.0,48.0,33.4,23.0,95,54,21,30.33,30.11,11,5,20,0.00
2012-4-9,66.0,55.8,47.0,34.0,26.9,21.0,59,35,19,30.12,29.98,16,8,27,0.00
2012-4-10,54.0,44.8,35.0,25.0,21.9,19.0,64,41,26,30.17,30.05,15,7,25,0.00
2012-4-11,56.0,42.8,28.0,26.0,23.2,20.0,74,48,30,30.31,30.15,8,3,16,0.00
2012-4-12,62.0,49.0,34.0,29.0,25.5,22.0,69,43,25,30.31,30.13,8,3,14,0.00
2012-4-13,58.0,50.2,42.0,46.0,36.9,26.0,79,61,35,30.19,30.03,11,5,23,0.04
2012-4-14,68.0,57.7,52.0,63.0,54.0,-99.9,96,90,75,30.04,29.76,10,5,18,0.40
2012-4-15,75.0,67.9,61.0,64.0,60.7,57.0,94,78,68,29.76,29.62,22,12,35,0.81
2012-4-16,60.0,55.2,47.0,57.0,46.1,40.0,93,72,52,30.23,29.58,22,13,38,0.88
2012-4-17,64.0,52.8,42.0,44.0,40.5,38.0,94,66,39,30.38,30.23,5,1,11,0.00
2012-4-18,71.0,58.0,44.0,49.0,44.8,38.0,83,63,42,30.27,29.98,15,7,25,0.00
2012-4-19,76.0,64.1,53.0,51.0,46.2,38.0,79,55,27,29.99,29.72,14,8,24,0.00
2012-4-20,64.0,49.2,43.0,52.0,43.2,37.0,94,81,53,30.01,29.65,11,8,23,0.15
2012-4-21,55.0,45.7,34.0,38.0,33.3,-99.9,92,67,37,30.07,29.97,7,3,15,0.01
2012-4-22,57.0,47.0,40.0,39.0,29.9,23.0,77,53,31,30.11,29.94,12,5,23,0.00
2012-4-23,59.0,47.4,34.0,35.0,28.7,24.0,74,50,33,30.11,29.86,12,5,24,0.00
2012-4-24,68.0,55.3,43.0,49.0,39.3,31.0,75,57,35,29.86,29.65,13,4,22,0.00
2012-4-25,78.0,62.8,48.0,64.0,53.2,43.0,87,72,50,29.70,29.52,17,5,27,0.00
2012-4-26,68.0,60.0,43.0,60.0,48.1,30.0,92,67,41,30.11,29.56,11,6,22,0.00
2012-4-27,58.0,48.1,36.0,31.0,22.1,16.0,66,39,20,30.25,30.01,9,5,23,0.00
2012-4-28,56.0,49.4,45.0,50.0,41.1,-99.9,86,76,38,30.12,29.90,11,6,25,0.21
2012-4-29,56.0,49.7,44.0,55.0,46.5,40.0,95,89,80,30.18,29.98,7,4,16,0.48
2012-4-30,64.0,60.0,55.0,63.0,58.0,53.0,97,93,86,30.00,29.91,10,5,17,0.79
2012-5-1,73.0,61.0,53.0,67.0,58.4,51.0,97,91,76,30.00,29.79,11,4,23,0.32
2012-5-2,81.0,70.7,61.0,69.0,64.6,60.0,97,82,64,29.98,29.78,12,5,20,0.05
2012-5-3,82.0,73.5,66.0,71.0,66.5,63.0,90,79,63,29.96,29.76,17,8,29,0.02
2012-5-4,81.0,69.9,62.0,66.0,62.6,60.0,94,79,51,29.98,29.83,11,3,20,0.12
2012-5-5,85.0,70.3,55.0,68.0,60.0,-99.9,96,74,46,29.93,29.86,5,2,15,0.06
2012-5-6,88.0,74.7,65.0,73.0,65.3,60.0,93,74,46,29.92,29.78,10,5,17,0.00
2012-5-7,70.0,59.8,57.0,65.0,49.5,-99.9,97,84,78,29.88,29.74,8,-75,20,0.45
2012-5-8,70.0,60.3,51.0,56.0,48.8,41.0,97,70,38,29.94,29.86,12,4,19,0.01
2012-5-9,67.0,58.1,49.0,49.0,45.6,42.0,83,64,43,29.96,29.89,9,5,19,0.01
2012-5-10,70.0,58.4,45.0,47.0,41.4,34.0,94,59,26,30.04,29.96,4,1,11,0.00
2012-5-11,75.0,63.2,48.0,48.0,42.6,39.0,76,50,29,30.14,30.03,11,5,20,0.00
2012-5-12,75.0,64.7,53.0,58.0,48.8,-99.9,81,59,39,30.21,30.14,7,2,14,0.00
2012-5-13,74.0,62.0,50.0,52.0,43.8,35.0,80,53,33,30.20,30.07,8,3,16,0.00
2012-5-14,79.0,64.9,48.0,42.0,36.0,27.0,68,38,16,30.11,29.99,6,2,14,0.00
2012-5-15,81.0,69.6,50.0,52.0,42.6,34.0,66,40,24,30.02,29.86,12,5,21,0.00
2012-5-16,72.0,63.9,54.0,53.0,41.3,29.0,75,46,27,30.09,29.87,11,5,22,0.00
2012-5-17,77.0,62.7,45.0,42.0,35.7,32.0,63,39,20,30.14,30.00,7,3,16,0.00
2012-5-18,84.0,69.6,53.0,53.0,45.2,37.0,63,44,24,30.05,29.92,7,3,15,0.00
2012-5-19,89.0,75.8,62.0,62.0,54.7,-99.9,82,52,29,30.01,29.93,12,5,20,0.00
2012-5-20,88.0,75.4,63.0,63.0,59.5,54.0,93,61,35,30.06,29.92,17,7,29,0.39
2012-5-21,66.0,59.8,54.0,62.0,51.5,46.0,95,75,57,30.14,30.03,9,4,17,0.39
2012-5-22,75.0,60.8,47.0,48.0,42.2,-99.9,90,56,29,30.10,29.89,7,-13,14,0.00
2012-5-23,80.0,66.5,49.0,49.0,45.2,43.0,80,50,27,29.92,29.72,9,4,19,0.00
2012-5-24,87.0,74.3,60.0,64.0,56.0,48.0,75,54,40,29.75,29.56,16,8,37,0.00
2012-5-25,89.0,78.0,68.0,66.0,58.8,52.0,77,53,31,29.99,29.70,10,3,16,0.00
2012-5-26,90.0,79.4,67.0,70.0,63.8,52.0,73,59,50,30.04,29.93,11,4,19,0.00
2012-5-27,92.0,82.3,72.0,69.0,62.9,57.0,72,54,31,29.96,29.81,11,6,19,0.00
2012-5-28,91.0,82.4,74.0,65.0,62.5,58.0,70,52,34,29.83,29.71,18,10,30,0.00
2012-5-29,83.0,74.1,64.0,63.0,53.7,42.0,82,52,24,29.86,29.73,9,3,16,0.03
2012-5-30,73.0,64.8,54.0,50.0,45.1,42.0,73,50,35,29.93,29.85,13,4,21,0.02
2012-5-31,58.0,52.4,48.0,50.0,46.5,44.0,94,81,59,29.93,29.78,11,5,25,0.64
2012-6-1,65.0,54.3,48.0,49.0,46.3,42.0,95,77,44,29.88,29.81,11,5,19,0.08
2012-6-2,69.0,58.2,50.0,57.0,49.8,-99.9,91,76,60,29.88,29.78,12,4,19,0.06
2012-6-3,79.0,67.2,53.0,62.0,54.5,50.0,96,68,38,29.89,29.80,7,3,16,0.02
2012-6-4,73.0,64.1,60.0,64.0,58.6,50.0,96,83,66,29.88,29.77,4,1,11,0.39
2012-6-5,75.0,64.5,51.0,59.0,51.3,47.0,87,64,45,29.98,29.88,7,2,14,0.02
2012-6-6,76.0,64.3,52.0,55.0,49.7,47.0,91,62,38,30.07,29.98,5,1,12,0.00
2012-6-7,80.0,63.0,53.0,54.0,39.1,-99.9,85,52,31,30.14,30.04,5,-69,10,0.00
2012-6-8,83.0,71.4,55.0,58.0,51.2,47.0,82,52,30,30.09,29.93,8,2,14,0.00
2012-6-9,86.0,74.5,60.0,59.0,53.7,-99.9,77,52,31,29.96,29.83,10,4,18,0.00
2012-6-10,86.0,76.3,65.0,64.0,60.0,57.0,77,58,41,29.93,29.83,12,4,23,0.00
2012-6-11,78.0,71.6,67.0,70.0,63.8,-99.9,92,79,68,29.89,29.71,13,-23,23,0.00
2012-6-12,77.0,68.3,58.0,65.0,50.8,40.0,88,58,27,30.10,29.89,11,4,20,0.00
2012-6-13,77.0,65.4,52.0,52.0,48.8,45.0,81,57,33,30.17,30.02,6,2,15,0.00
2012-6-14,85.0,71.1,56.0,59.0,53.3,47.0,73,55,37,30.08,29.94,8,4,16,0.00
2012-6-15,89.0,75.0,59.0,62.0,57.1,51.0,78,56,37,30.05,29.96,8,4,17,0.00
2012-6-16,89.0,77.9,67.0,72.0,63.8,-99.9,95,65,51,30.02,29.85,19,6,29,0.70
2012-6-17,84.0,74.5,68.0,71.0,67.0,61.0,95,79,48,29.92,29.78,11,5,18,0.79
2012-6-18,88.0,79.3,71.0,72.0,68.2,63.0,89,71,52,29.84,29.71,19,9,33,0.07
2012-6-19,89.0,80.3,71.0,73.0,67.1,63.0,82,65,50,29.96,29.83,13,8,25,0.00
2012-6-20,88.0,80.5,72.0,70.0,64.9,62.0,74,60,43,30.01,29.86,14,8,22,0.00
2012-6-21,80.0,74.5,69.0,70.0,64.8,59.0,90,73,51,29.97,29.90,9,5,15,0.06
2012-6-22,81.0,71.3,59.0,62.0,57.5,54.0,91,65,39,30.02,29.95,6,2,13,0.06
2012-6-23,83.0,72.1,58.0,64.0,57.9,53.0,88,63,38,30.03,29.93,4,1,9,0.00
2012-6-24,84.0,73.6,66.0,69.0,63.8,58.0,87,72,53,29.99,29.89,6,1,12,0.03
2012-6-25,80.0,72.7,60.0,68.0,53.4,43.0,87,54,29,30.00,29.89,7,3,19,0.01
2012-6-26,81.0,68.2,54.0,56.0,52.2,49.0,87,60,36,30.05,29.91,7,3,16,0.00
2012-6-27,89.0,75.6,57.0,59.0,54.7,49.0,76,51,33,29.98,29.79,13,6,22,0.00
2012-6-28,99.0,84.3,68.0,77.0,66.6,54.0,82,56,43,29.88,29.78,13,6,22,0.00
2012-6-29,95.0,85.5,76.0,81.0,75.0,70.0,93,72,48,29.85,29.73,11,3,22,0.00
2012-6-30,90.0,79.3,70.0,75.0,70.5,64.0,93,75,53,29.85,29.76,6,2,13,0.01
2012-7-1,90.0,80.8,72.0,74.0,71.0,67.0,94,74,52,29.95,29.83,6,2,11,0.01
2012-7-2,97.0,82.7,70.0,75.0,69.3,61.0,94,67,38,29.96,29.87,15,3,24,0.00
2012-7-3,94.0,81.5,68.0,76.0,68.9,62.0,85,67,46,29.94,29.81,11,4,21,0.00
2012-7-4,97.0,84.5,73.0,74.0,70.1,-99.9,92,66,39,29.90,29.84,9,-17,15,0.00
2012-7-5,99.0,86.3,73.0,72.0,67.8,64.0,78,57,35,29.94,29.87,7,2,14,0.00
2012-7-6,100.0,87.7,73.0,74.0,69.7,66.0,82,58,34,29.96,29.88,5,1,10,0.00
2012-7-7,101.0,89.0,76.0,75.0,70.9,67.0,83,58,34,29.95,29.85,7,2,12,0.00
2012-7-8,84.0,75.3,66.0,73.0,66.1,56.0,93,74,45,30.02,29.92,7,3,16,0.22
2012-7-9,87.0,74.8,61.0,69.0,61.6,57.0,92,66,42,30.04,29.95,6,2,11,0.01
2012-7-10,87.0,75.6,66.0,65.0,60.5,55.0,87,61,41,30.05,29.99,6,2,17,0.00
2012-7-11,88.0,76.1,66.0,66.0,61.1,55.0,82,62,41,30.09,30.00,6,2,12,0.00
2012-7-12,91.0,78.7,66.0,67.0,62.1,57.0,82,59,38,30.04,29.97,5,2,11,0.00
2012-7-13,90.0,78.7,66.0,71.0,66.7,63.0,90,68,46,30.04,29.95,6,2,13,0.00
2012-7-14,86.0,74.7,67.0,72.0,67.3,64.0,94,79,59,30.06,29.96,7,2,14,0.00
2012-7-15,92.0,79.1,67.0,74.0,69.4,65.0,95,75,46,30.06,29.96,7,3,14,0.00
2012-7-16,92.0,81.8,71.0,75.0,70.9,67.0,92,71,50,30.00,29.84,9,4,16,0.00
2012-7-17,95.0,83.9,74.0,75.0,72.1,68.0,89,69,45,29.87,29.78,11,3,19,0.00
2012-7-18,98.0,82.3,74.0,77.0,66.6,-99.9,91,66,38,29.89,29.79,9,-32,16,0.00
2012-7-19,94.0,83.3,74.0,75.0,71.0,67.0,87,68,53,29.90,29.80,12,6,21,0.00
2012-7-20,84.0,74.3,67.0,69.0,65.4,59.0,89,75,50,30.04,29.90,8,4,24,0.00
2012-7-21,88.0,64.4,58.0,67.0,42.1,-99.9,96,62,38,30.10,30.00,4,-120,10,0.00
2012-7-22,91.0,81.1,69.0,70.0,65.4,62.0,81,61,42,30.11,29.97,8,3,13,0.00
2012-7-23,99.0,81.0,75.0,76.0,60.7,-99.9,77,57,39,30.01,29.89,11,-44,17,0.00
2012-7-24,91.0,84.1,77.0,74.0,70.6,68.0,82,64,48,29.94,29.84,7,4,12,0.00
2012-7-25,98.0,73.8,72.0,75.0,46.8,-99.9,94,55,38,29.89,29.61,11,-136,24,0.05
2012-7-26,87.0,56.5,67.0,72.0,22.1,-99.9,96,54,58,29.83,29.60,14,-272,46,0.31
2012-7-27,85.0,74.9,65.0,71.0,63.9,59.0,94,71,44,29.97,29.79,11,4,18,0.31
2012-7-28,80.0,55.3,63.0,66.0,28.5,-99.9,93,62,57,30.10,29.96,5,-212,14,0.00
2012-7-29,86.0,68.8,62.0,67.0,49.8,-99.9,88,62,47,30.09,29.91,6,-77,13,0.00
2012-7-30,89.0,77.7,66.0,71.0,66.1,61.0,89,70,49,29.93,29.85,7,2,12,0.00
2012-7-31,95.0,69.0,69.0,74.0,41.0,-99.9,93,55,41,29.90,29.82,9,-165,16,0.00
2012-8-1,90.0,78.3,62.0,67.0,63.0,60.0,93,62,39,29.93,29.82,5,2,10,0.00
2012-8-2,94.0,73.5,64.0,70.0,55.3,-99.9,92,63,36,29.86,29.72,14,-48,25,0.00
2012-8-3,92.0,77.7,67.0,71.0,68.3,66.0,96,76,47,29.85,29.78,6,3,16,0.00
2012-8-4,91.0,80.5,71.0,78.0,71.9,68.0,95,77,53,29.89,29.78,10,4,20,0.00
2012-8-5,85.0,76.2,66.0,72.0,64.0,58.0,96,69,43,30.13,29.87,9,4,20,0.52
2012-8-6,86.0,72.7,57.0,63.0,56.6,50.0,94,62,30,30.15,29.99,6,2,11,0.08
2012-8-7,72.0,24.6,59.0,63.0,-39.5,-99.9,89,30,69,29.99,29.91,3,-613,6,0.00
2012-8-8,88.0,70.5,68.0,70.0,53.9,-99.9,88,66,44,29.97,29.87,8,-70,15,0.02
2012-8-9,87.0,55.5,65.0,69.0,22.2,-99.9,96,55,47,29.93,29.74,8,-258,16,0.02
2012-8-10,77.0,62.9,60.0,63.0,46.2,-99.9,95,67,44,29.97,29.81,9,-66,19,0.00
2012-8-11,78.0,65.0,52.0,53.0,46.3,-99.9,91,59,31,30.02,29.95,7,2,15,0.00
2012-8-12,78.0,66.8,54.0,61.0,54.4,48.0,89,66,42,30.03,29.93,6,2,10,0.00
2012-8-13,73.0,56.5,62.0,65.0,39.2,-99.9,96,76,75,29.98,29.86,7,-138,14,0.37
2012-8-14,80.0,64.5,58.0,64.0,51.8,-99.9,98,75,50,29.98,29.89,5,-55,11,0.01
2012-8-15,85.0,65.6,60.0,63.0,48.1,-99.9,93,66,38,29.97,29.86,7,-69,12,0.00
2012-8-16,72.0,58.5,62.0,68.0,41.4,-99.9,97,75,67,29.95,29.72,9,-133,27,1.32
2012-8-17,73.0,50.8,54.0,59.0,25.5,-99.9,95,62,48,30.03,29.94,4,-184,12,0.01
2012-8-18,76.0,64.7,51.0,58.0,52.6,49.0,96,69,39,30.02,29.91,4,1,9,0.00
2012-8-19,77.0,60.9,57.0,59.0,45.8,-99.9,93,69,45,29.96,29.89,5,-62,9,0.00
2012-8-20,78.0,66.0,53.0,59.0,54.5,51.0,93,69,41,29.99,29.91,6,2,12,0.00
2012-8-21,79.0,59.6,54.0,61.0,38.0,-99.9,95,61,37,30.06,29.97,5,-105,11,0.00
2012-8-22,85.0,62.7,56.0,61.0,35.7,-99.9,84,52,28,30.10,30.00,5,-112,10,0.00
2012-8-23,91.0,74.0,60.0,63.0,53.5,-99.9,82,54,31,30.07,29.97,7,-18,13,0.00
2012-8-24,91.0,77.4,62.0,65.0,59.9,57.0,83,58,34,30.02,29.91,6,2,10,0.00
2012-8-25,89.0,74.6,63.0,65.0,55.8,-99.9,83,58,37,30.03,29.93,9,-26,22,0.00
2012-8-26,83.0,72.4,68.0,74.0,68.8,64.0,97,89,68,30.02,29.91,8,2,17,0.70
2012-8-27,85.0,54.2,69.0,71.0,23.8,-99.9,98,62,42,30.07,29.94,7,-255,15,0.05
2012-8-28,86.0,72.0,61.0,64.0,57.3,-99.9,94,66,40,30.12,29.99,4,-20,10,0.00
2012-8-29,85.0,70.0,64.0,68.0,51.5,-99.9,88,63,50,30.07,29.96,5,-73,9,0.00
2012-8-30,71.0,6.1,67.0,64.0,-85.4,-99.9,87,7,67,30.03,29.94,2,-910,8,0.00
2012-8-31,81.0,75.4,68.0,74.0,69.0,57.0,95,81,64,30.07,29.96,8,2,16,0.10
2012-9-1,78.0,51.3,71.0,74.0,20.2,-99.9,98,67,87,29.97,29.80,9,-298,22,2.04
2012-9-2,77.0,58.6,71.0,74.0,37.2,-99.9,98,76,88,29.82,29.74,7,-197,18,0.78
2012-9-3,88.0,78.2,69.0,73.0,71.1,68.0,97,80,59,29.88,29.80,5,2,14,0.01
2012-9-4,91.0,78.9,70.0,75.0,71.8,68.0,97,80,53,29.88,29.79,4,1,8,0.00
2012-9-5,84.0,72.3,65.0,71.0,65.9,60.0,94,81,62,29.90,29.75,16,4,28,0.04
2012-9-6,87.0,74.9,67.0,70.0,64.3,56.0,98,73,35,29.93,29.83,6,2,10,0.04
2012-9-7,75.0,66.0,61.0,69.0,62.5,56.0,96,89,73,29.90,29.71,10,4,24,0.93
2012-9-8,71.0,61.0,52.0,56.0,51.8,49.0,96,74,47,29.96,29.86,8,5,19,0.01
2012-9-9,71.0,61.3,55.0,55.0,51.4,47.0,91,72,46,30.15,29.86,7,4,16,0.00
2012-9-10,76.0,63.0,49.0,57.0,51.1,48.0,97,69,41,30.22,30.09,4,1,10,0.00
2012-9-11,81.0,67.0,54.0,59.0,54.8,50.0,87,67,43,30.17,30.06,10,4,21,0.00
2012-9-12,84.0,69.9,56.0,61.0,57.2,53.0,91,67,39,30.17,30.08,10,4,19,0.00
2012-9-13,81.0,66.4,56.0,64.0,57.4,51.0,92,74,45,30.29,30.14,10,4,19,0.00
2012-9-14,71.0,59.6,52.0,56.0,52.1,48.0,96,78,48,30.36,30.27,8,2,13,0.19
2012-9-15,75.0,61.9,49.0,53.0,47.6,43.0,94,63,32,30.33,30.15,4,1,11,0.02
2012-9-16,78.0,63.7,50.0,58.0,51.9,47.0,93,69,43,30.15,29.97,7,2,17,0.00
2012-9-17,75.0,63.8,56.0,64.0,59.3,55.0,98,87,64,29.98,29.74,9,2,18,0.16
2012-9-18,62.0,53.2,46.0,55.0,40.5,-99.9,95,68,39,30.07,29.81,11,-9,22,0.16
2012-9-19,72.0,56.9,42.0,48.0,41.7,37.0,84,60,36,30.11,29.91,15,6,26,0.00
2012-9-20,72.0,48.2,52.0,54.0,9.6,-99.9,88,39,31,29.97,29.89,10,-229,20,0.00
2012-9-21,75.0,56.6,49.0,56.0,46.0,38.0,94,70,29,29.97,29.71,11,2,18,0.37
2012-9-22,59.0,50.2,44.0,49.0,39.5,-99.9,98,72,43,30.22,29.84,13,5,25,0.03
2012-9-23,62.0,49.8,39.0,44.0,37.0,31.0,93,66,31,30.30,30.21,10,2,20,0.01
2012-9-24,70.0,53.9,37.0,44.0,36.5,32.0,85,56,28,30.27,29.96,12,5,20,0.00
2012-9-25,71.0,63.1,55.0,66.0,57.6,45.0,97,83,57,29.95,29.82,10,4,18,0.30
2012-9-26,74.0,65.3,58.0,67.0,62.3,52.0,98,90,75,30.08,29.87,7,2,14,1.02
2012-9-27,72.0,61.4,54.0,53.0,48.0,44.0,84,63,38,30.18,30.08,5,2,14,0.14
2012-9-28,70.0,58.0,47.0,52.0,48.0,45.0,93,71,50,30.18,30.08,8,3,17,0.00
2012-9-29,75.0,60.5,44.0,53.0,46.6,43.0,97,65,33,30.14,29.93,7,2,14,0.00
2012-9-30,71.0,59.6,47.0,50.0,46.1,42.0,93,64,36,29.94,29.86,7,2,15,0.00
2012-10-1,64.0,56.3,49.0,47.0,45.5,44.0,86,68,49,29.91,29.78,6,2,16,0.00
2012-10-2,69.0,58.1,49.0,54.0,50.1,46.0,92,76,46,29.88,29.77,8,3,18,0.00
2012-10-3,70.0,60.5,55.0,57.0,53.0,46.0,97,78,44,30.04,29.86,9,3,15,0.07
2012-10-4,79.0,61.9,48.0,60.0,53.5,46.0,94,76,49,30.16,30.02,13,6,23,0.21
2012-10-5,49.0,43.7,38.0,47.0,40.1,34.0,95,87,77,30.21,30.13,10,4,18,1.07
2012-10-6,47.0,40.1,34.0,34.0,32.0,30.0,92,74,52,30.24,30.16,10,5,18,0.01
2012-10-7,49.0,41.6,34.0,34.0,30.8,27.0,87,67,43,30.26,30.17,9,3,16,0.00
2012-10-8,58.0,45.4,32.0,36.0,32.2,27.0,82,62,39,30.21,30.06,13,6,21,0.00
2012-10-9,64.0,51.6,41.0,45.0,41.0,35.0,91,69,47,30.07,29.88,16,8,25,0.01
2012-10-10,53.0,43.8,36.0,42.0,33.9,30.0,95,71,41,30.22,29.98,12,5,20,0.08
2012-10-11,64.0,47.9,36.0,43.0,35.7,30.0,82,65,38,30.23,30.10,15,6,24,0.00
2012-10-12,59.0,49.9,42.0,43.0,37.1,34.0,83,63,39,30.40,30.22,9,4,16,0.00
2012-10-13,68.0,57.8,47.0,64.0,54.3,39.0,98,88,73,30.24,29.80,14,6,24,2.14
2012-10-14,70.0,60.7,50.0,63.0,57.7,47.0,97,90,73,29.86,29.53,23,12,41,0.96
2012-10-15,62.0,51.2,44.0,47.0,43.1,41.0,95,75,50,29.99,29.86,7,4,15,0.23
2012-10-16,73.0,57.4,43.0,56.0,48.4,40.0,90,73,54,29.96,29.58,11,6,25,0.00
2012-10-17,63.0,58.8,54.0,60.0,54.2,49.0,96,85,72,29.61,29.30,15,8,26,0.56
2012-10-18,54.0,48.1,43.0,43.0,39.2,34.0,91,72,50,29.55,29.45,18,10,30,0.43
2012-10-19,50.0,46.4,44.0,46.0,43.9,42.0,96,91,79,29.70,29.44,11,8,19,0.39
2012-10-20,55.0,47.5,42.0,46.0,43.1,39.0,97,85,64,29.95,29.71,7,3,13,0.28
2012-10-21,71.0,55.3,42.0,56.0,48.9,40.0,95,81,56,30.00,29.92,7,4,13,0.01
2012-10-22,66.0,62.5,58.0,63.0,59.1,54.0,96,89,75,30.01,29.88,9,5,19,0.87
2012-10-23,71.0,64.4,60.0,63.0,60.0,57.0,92,86,76,29.94,29.86,12,6,19,0.01
2012-10-24,78.0,67.8,59.0,68.0,61.7,56.0,90,81,69,29.95,29.84,12,6,23,0.00
2012-10-25,77.0,62.6,43.0,65.0,56.5,40.0,94,82,63,30.10,29.71,22,11,34,0.28
2012-10-26,48.0,41.7,38.0,40.0,33.8,31.0,86,74,59,30.34,30.10,13,6,22,0.28
2012-10-27,46.0,38.8,32.0,33.0,30.3,28.0,88,73,54,30.35,30.24,8,5,16,0.00
2012-10-28,49.0,39.6,32.0,36.0,31.6,28.0,86,74,51,30.29,30.24,7,4,19,0.00
2012-10-29,51.0,40.9,32.0,37.0,30.1,26.0,89,68,38,30.31,30.10,11,5,21,0.00
2012-10-30,49.0,40.3,35.0,29.0,27.4,25.0,73,61,39,30.11,29.84,16,7,29,0.00
2012-10-31,49.0,38.2,29.0,32.0,26.5,22.0,84,64,38,29.93,29.86,11,6,22,0.00
2012-11-1,58.0,43.8,31.0,40.0,29.9,23.0,76,59,38,29.98,29.84,10,4,15,0.00
2012-11-2,51.0,41.3,31.0,35.0,29.7,27.0,87,65,41,30.12,29.90,6,3,15,0.00
2012-11-3,42.0,38.4,34.0,36.0,34.3,31.0,92,86,76,30.23,30.07,8,3,16,0.05
2012-11-4,45.0,36.6,29.0,37.0,31.6,28.0,96,83,63,30.28,30.20,5,1,9,0.01
2012-11-5,44.0,38.3,33.0,33.0,31.5,30.0,91,77,63,30.21,30.11,6,2,14,0.01
2012-11-6,42.0,38.8,35.0,41.0,35.5,30.0,97,88,78,30.11,29.91,6,2,12,0.12
2012-11-7,43.0,41.0,39.0,41.0,39.4,38.0,97,94,89,30.19,29.90,6,2,12,0.03
2012-11-8,49.0,42.1,37.0,41.0,38.5,35.0,96,87,72,30.24,30.09,8,3,14,0.01
2012-11-9,62.0,49.2,36.0,53.0,44.1,34.0,94,84,68,30.11,29.93,7,4,14,0.00
2012-11-10,72.0,61.5,53.0,56.0,51.3,47.0,92,70,48,29.99,29.87,16,10,31,0.00
2012-11-11,67.0,56.9,36.0,56.0,49.9,34.0,96,79,64,30.02,29.76,20,11,40,0.70
2012-11-12,38.0,32.4,27.0,34.0,25.4,20.0,94,76,56,30.42,30.00,14,9,26,0.50
2012-11-13,42.0,32.7,24.0,26.0,24.3,21.0,88,72,48,30.55,30.41,4,2,8,0.00
2012-11-14,44.0,34.7,29.0,31.0,26.7,-99.9,87,75,54,30.54,30.40,7,3,14,0.00
2012-11-15,48.0,35.5,27.0,34.0,28.1,24.0,93,76,45,30.43,30.36,3,1,6,0.00
2012-11-16,54.0,40.4,30.0,36.0,30.6,26.0,86,70,45,30.49,30.40,5,2,9,0.00
2012-11-17,53.0,41.2,31.0,39.0,33.0,27.0,87,73,52,30.55,30.44,5,2,10,0.00
2012-11-18,58.0,43.6,33.0,39.0,34.4,29.0,89,72,46,30.45,30.33,5,3,13,0.00
2012-11-19,55.0,47.0,39.0,44.0,39.2,34.0,85,75,61,30.33,30.12,11,4,19,0.00
2012-11-20,60.0,52.0,46.0,49.0,45.3,41.0,93,78,66,30.18,30.08,6,2,9,0.00
2012-11-21,56.0,43.8,33.0,51.0,41.9,32.0,98,93,82,30.27,30.14,7,2,12,0.01
2012-11-22,62.0,52.6,44.0,50.0,46.6,38.0,94,81,61,30.15,29.87,16,10,27,0.03
2012-11-23,45.0,33.3,23.0,38.0,24.3,17.0,86,69,56,30.31,30.01,19,11,32,0.02
2012-11-24,32.0,26.1,20.0,24.0,19.9,16.0,87,77,65,30.35,30.06,8,4,14,0.00
2012-11-25,45.0,37.9,30.0,31.0,27.8,23.0,78,67,54,30.10,29.91,11,5,20,0.00
2012-11-26,38.0,32.4,26.0,28.0,23.8,20.0,88,71,50,30.39,30.09,8,3,14,0.00
2012-11-27,36.0,26.8,18.0,21.0,17.5,14.0,85,69,42,30.47,30.34,6,3,10,0.00
2012-11-28,46.0,33.3,23.0,28.0,23.7,18.0,83,69,48,30.46,30.32,7,3,11,0.00
2012-11-29,52.0,40.1,28.0,37.0,31.5,24.0,87,72,55,30.33,30.09,10,5,18,0.00
2012-11-30,58.0,45.7,38.0,40.0,36.0,32.0,86,70,50,30.11,30.05,13,5,19,0.00
2012-12-1,62.0,51.0,37.0,54.0,46.2,35.0,97,84,73,30.12,29.92,14,7,24,0.00
2012-12-2,64.0,56.9,49.0,57.0,52.9,48.0,97,87,76,30.03,29.90,15,6,24,0.00
2012-12-3,67.0,59.8,52.0,61.0,57.2,51.0,98,92,80,30.01,29.85,18,11,29,0.01
2012-12-4,53.0,46.8,41.0,51.0,42.7,34.0,96,86,71,30.29,29.94,6,4,13,0.86
2012-12-5,44.0,37.4,31.0,35.0,31.3,26.0,89,79,67,30.44,30.21,6,3,15,0.09
2012-12-6,48.0,38.9,32.0,43.0,33.9,-99.9,92,86,78,30.21,29.96,8,4,14,0.00
2012-12-7,46.0,43.8,43.0,44.0,40.4,-99.9,97,94,90,29.97,29.85,5,1,9,0.14
2012-12-8,44.0,40.0,37.0,43.0,38.2,34.0,98,94,88,30.05,29.83,7,3,16,0.02
2012-12-9,46.0,40.5,37.0,45.0,39.0,34.0,98,95,87,30.03,29.77,11,6,19,0.09
2012-12-10,37.0,27.5,25.0,34.0,24.5,22.0,92,88,86,30.04,29.81,12,8,21,0.01
2012-12-11,35.0,27.4,20.0,28.0,23.3,18.0,92,84,69,30.23,30.04,14,6,22,0.01
2012-12-12,44.0,32.7,24.0,33.0,26.7,21.0,91,80,57,30.36,30.22,9,4,17,0.00
2012-12-13,46.0,36.8,30.0,35.0,29.7,25.0,83,76,60,30.34,30.16,13,7,25,0.00
2012-12-14,50.0,39.6,31.0,41.0,33.8,28.0,88,80,62,30.23,30.02,7,4,14,0.00
2012-12-15,52.0,46.7,40.0,50.0,43.9,35.0,96,90,70,30.02,29.58,16,8,26,0.32
2012-12-16,49.0,42.8,38.0,46.0,39.8,35.0,95,90,87,29.77,29.65,11,5,18,0.01
2012-12-17,38.0,35.9,33.0,35.0,33.8,31.0,96,92,89,29.79,29.67,6,2,10,0.17
2012-12-18,47.0,38.1,32.0,42.0,34.9,31.0,95,89,78,29.89,29.59,20,7,32,0.01
2012-12-19,42.0,36.7,33.0,39.0,34.0,31.0,94,90,86,30.07,29.63,11,5,26,0.23
2012-12-20,53.0,43.7,24.0,51.0,41.9,23.0,97,93,82,29.74,29.11,23,13,37,0.43
2012-12-21,27.0,20.4,16.0,22.0,16.4,12.0,94,84,70,30.29,29.74,18,11,34,0.02
2012-12-22,34.0,22.9,11.0,28.0,18.5,9.0,91,83,69,30.31,29.96,8,3,14,0.00
2012-12-23,35.0,29.7,22.0,31.0,26.7,20.0,94,88,80,30.03,29.93,8,2,14,0.00
2012-12-24,31.0,27.8,23.0,28.0,25.5,21.0,93,91,88,30.15,29.83,13,6,20,0.00
2012-12-25,30.0,27.2,24.0,27.0,24.1,21.0,92,88,84,30.32,30.13,8,5,17,0.00
2012-12-26,32.0,29.8,27.0,28.0,25.5,23.0,88,84,78,30.15,29.98,16,9,26,0.00
2012-12-27,30.0,27.9,26.0,25.0,23.6,22.0,88,83,76,30.23,30.14,7,3,12,0.00
2012-12-28,32.0,30.1,28.0,29.0,27.3,24.0,94,89,84,30.16,29.90,7,2,14,0.00
2012-12-29,30.0,23.9,16.0,28.0,20.1,13.0,94,85,77,30.34,29.90,15,9,22,0.00
2012-12-30,39.0,27.3,15.0,31.0,22.7,12.0,90,83,67,30.43,30.19,12,7,22,0.00
2012-12-31,35.0,29.6,21.0,31.0,26.7,18.0,96,89,75,30.19,30.09,12,6,19,0.02
2013-1-1,22.0,18.1,10.0,18.0,12.9,6.0,88,80,67,30.29,30.15,7,4,14,0.01